Regional Weather Roundup
Issued by NWS

Home | Current Version | Previous Version | Graphics & Text | Print | Product List | Glossary On
Versions: 1 2 3 4 5 6 7 8 9 10 11 12 13 14 15 16 17 18 19 20 21 22 23 24 25 26 27 28 29 30 31 32 33 34 35 36 37 38 39 40 41 42 43 44 45 46 47 48 49 50
000
ASUS44 KMEG 280810
RWRTN
TENNESSEE HOURLY STATE WEATHER ROUNDUP
NATIONAL WEATHER SERVICE MEMPHIS TN
300 AM CDT WED JUN 28 2017

TNZ002-004-019-021-049-052-054-088>092-280900-
WEST TENNESSEE

CITY           SKY/WX    TMP DP  RH WIND       PRES   REMARKS
MEMPHIS INTL   PTCLDY    73  63  70 SE8       30.03F
NWS MEMPHIS      N/A     69 N/A N/A MISG        N/A
JACKSON        CLEAR     63  62  97 CALM      30.06F
SOMERVILLE     CLEAR     66  63  88 CALM      30.04S
COVINGTON      CLEAR     66  64  94 CALM      30.05S
UNION CITY     CLEAR     63  59  88 CALM      30.05F
BOLIVAR        CLEAR     63  61  94 CALM      30.06S
HUNTINGDON     PTCLDY    61  59  94 E3        30.06S
LEXINGTON      CLEAR     57  57 100 CALM      30.07S FOG
SELMER         CLEAR     64  61  88 SE3       30.06F
SAVANNAH       CLEAR     61  59  94 CALM      30.06F
$$

TNZ008-025-027-028-033-062-065-066-280900-
NORTH MIDDLE TENNESSEE

CITY           SKY/WX    TMP DP  RH WIND       PRES   REMARKS
NASHVILLE      CLEAR     61  58  90 CALM      30.11S
PORTLAND       PTCLDY    57  55  94 CALM      30.10S
CLARKSVILLE    CLEAR     57  53  86 CALM      30.09S
SMYRNA         CLEAR     58  57  97 CALM      30.12S
COOKEVILLE     CLEAR     52  52 100 CALM      30.12S
GALLATIN       MOCLDY    57  55  94 CALM      30.14R
CROSSVILLE     CLEAR     52  51  97 CALM      30.16S
$$

TNZ061-075-076-078-094-096-097-280900-
SOUTH MIDDLE TENNESSEE

CITY           SKY/WX    TMP DP  RH WIND       PRES   REMARKS
FAYETTEVILLE   CLEAR     61  55  82 CALM      30.10F
COLUMBIA       CLEAR     59  59 100 CALM      30.08S
SHELBYVILLE    CLEAR     57  55  94 CALM      30.11S
$$

TNZ017-018-042-046-047-280900-
NORTHEAST TENNESSEE

CITY           SKY/WX    TMP DP  RH WIND       PRES   REMARKS
TRI CITIES     CLEAR     52  50  93 CALM      30.18S
ELIZABETHTON   CLEAR     55  50  82 CALM      30.19S
$$

TNZ012-013-036-069-073-074-280900-
CENTRAL EAST TENNESSEE

CITY           SKY/WX    TMP DP  RH WIND       PRES   REMARKS
KNOXVILLE      CLEAR     56  53  90 CALM      30.12F
OAK RIDGE      CLEAR     57  54  89 CALM      30.15S
DOWNTOWN KNOXV   N/A     55  55 100 CALM      30.13S
MORRISTOWN     CLEAR     57  52  82 NE5       30.14F
JACKSBORO        N/A     52  52 100 CALM      30.19R
$$

TNZ083-085-099-280900-
SOUTHEAST TENNESSEE

CITY           SKY/WX    TMP DP  RH WIND       PRES   REMARKS
CHATTANOOGA    CLEAR     61  58  90 SW3       30.12S
DAYTON         MOSUNNY   57  57 100 CALM      30.12S
$$

SKY/WX REPORTED AS FAIR MEANS FEW OR NO CLOUDS BELOW
12 THOUSAND FEET.




USA.gov is the U.S. government's official web portal to all federal, state and local government web resources and services.